Reflectivity
-20 -20 -20 -20 -20 -20 -17 -19 7 -20 -20 -20 -20 -20 -20 -20 -20 -20 -20 -20 -20 -20 -20 -20 -20 -20 -20 -20 -20 -20 -20 -20 -20 -20 -20 -20 -20 -20 -20 -20 -20 -20 -20 -20 -20 -20 -20 -20 -20
-20 -20 -20 -20 -20 -20 -20 -20 -20 -20 -20 -20 -20 -20 -20 -20 -20 -20 -20 -20 -20 -20 -20 -20 -20 -20 -20 -20 -20 -20 -20 -20 -20 -20 -20 -20 -20 -20 -20 -20 -20 -20 -20 -20 -20 -20 -20 -20 -20
-20 -20 -20 -20 -20 -20 -20 -20 -20 -20 -20 -20 -20 -20 -20 -20 -20 -20 -20 -20 -20 -20 -20 -20 -20 -20 -20 -20 -20 -20 -20 -20 -20 -20 -20 -20 -20 -20 -20 -20 -20 -20 -20 -20 -20 -20 -20 -20 -13
-20 -20 -20 -20 -20 -20 -20 -20 -20 -20 -20 -20 -20 -20 -20 -20 -20 -20 -20 -20 -20 -20 -20 -20 -20 -20 -20 -20 -20 -20 -20 -20 -20 -20 -20 -20 -20 -20 -20 -20 -16 1 -3 -20 -20 -20 -20 -20 -1
-20 -20 -20 -20 -20 -20 -20 -20 -20 -20 -20 -20 -20 -20 -20 -20 -20 -20 -20 -20 -20 -20 -20 -20 -20 -20 -20 -20 -20 -20 -20 -20 -20 -20 -20 -20 -20 -20 -20 -7 -20 -1 23 19 24 -3 -9 -17 -20
-20 -20 -20 -20 -20 -20 -20 -20 -20 -20 -20 -20 -20 -20 -20 -20 -20 -20 -20 -20 -20 -20 -20 -20 -20 -20 -20 -20 -20 -20 -20 -20 -20 -20 -20 -20 -20 -18 14 -20 -20 -13 -20 -18 -10 -1 24 18 -20
-20 -20 -20 -20 -20 -20 -20 -20 -20 -20 -20 -20 -20 -20 -20 -20 -20 -20 -20 -20 -20 -20 -20 -20 -20 -20 -20 -20 -20 -20 -20 -20 -20 -20 -20 -20 -20 1 -20 -20 -20 -20 -20 -20 -20 -17 7 -20 -10
-20 -20 -20 -20 -20 -20 -20 -20 -20 -20 -20 -20 -20 -20 -20 -20 -20 -20 -20 -20 -20 -20 -20 -20 -20 -20 -20 -20 -20 -20 -20 -20 -20 -20 -20 -20 -20 -20 -20 -20 -20 -20 -20 -20 -20 -0 3 12 -19
-20 -20 -20 -20 -20 -19 2 -19 -20 -20 -20 -20 -20 -20 -20 -20 -20 -20 -20 -20 -20 -20 -20 -20 -20 -20 -20 -20 -20 -20 -20 -20 -20 -20 -14 -20 -20 -20 -20 -20 -20 -20 -20 -20 -20 -20 -20 -20 -20
-20 -20 -20 -20 -20 -20 -20 -20 -20 -20 -20 -20 -20 -20 -20 -20 -20 -20 -20 -20 -20 -20 -20 -20 -20 -20 -20 -20 -20 -20 -20 -20 -20 -20 -20 -20 -20 -20 -20 -20 -20 -20 -20 -20 -20 -20 -19 -6 -20
-20 -20 -20 -20 -20 -20 -20 -20 -20 -20 -20 -20 -20 -20 -20 -20 -20 -20 -20 -20 -20 -20 -20 -20 -20 -20 -20 -20 -20 -20 -20 -20 -20 -20 -20 -20 -20 -20 -20 -20 -20 -20 -20 -20 -20 -20 -20 -20 -20
-20 -20 -20 -20 -17 -5 -20 -20 -20 -20 -20 -20 -20 -20 -20 -20 -20 -20 -20 -20 -20 -14 -20 -20 -20 -20 -20 -20 -20 -20 -20 -20 -20 -20 -20 -20 -20 -20 -20 -20 -20 -20 -20 -20 -20 -20 -20 -20 -20
-20 -20 -20 -20 -20 -20 -20 -20 -20 -20 -20 -20 -20 -20 -20 -20 -20 -20 -20 -20 -20 -20 -20 -20 -20 -20 -20 -20 -20 -20 -20 -20 -20 -20 -20 -20 -20 -20 -20 -20 -20 -19 -20 -20 -20 -20 -20 -20 -20
-20 -20 -20 -20 -20 -20 -20 -20 -20 -20 -18 -3 -20 -20 -20 -20 -20 -20 -20 -20 -20 -20 -20 -20 -20 -20 -20 -20 -20 -20 -20 -20 -20 -20 -20 -20 -20 -20 -20 2 -3 -16 13 -2 -16 -20 -20 -20 -20
-20 -20 -20 -20 -20 -20 -20 -20 -20 -20 -19 -18 -20 -20 -20 -20 -20 -20 -20 -20 -20 -20 -20 -20 -20 -20 -20 -20 -20 -20 -20 -20 -20 -20 -20 -20 -20 -8 8 13 8 15 20 16 21 -20 -20 -20 -20
-20 -20 -20 -20 -20 -20 -20 -20 -20 -20 -18 -20 -20 -20 -20 -20 -20 -20 -20 -20 -20 -20 -20 -20 -20 -20 -20 -20 -9 -17 -20 -20 -20 -20 -20 -20 -20 -1 24 5 3 20 20 3 22 -19 -20 -20 -20
-20 -20 -20 -20 -20 -20 -20 -20 -20 -20 -20 -20 -20 -20 -20 -20 -20 -20 -20 -20 -20 -20 -20 -20 -20 -20 -20 -20 -18 -20 -20 -20 -20 -20 -20 -20 -4 3 5 22 23 24 18 20 21 23 -18 1 21
-20 -20 -20 -20 -20 -20 -20 -20 -20 -20 -20 -20 -20 -20 -20 -20 -20 -20 -20 -20 -20 -20 -20 -20 -20 -20 -20 -20 -20 -20 -20 -20 -20 -20 -20 -20 5 11 21 23 28 12 0 19 23 21 5 21 21
-20 -20 -20 -20 -20 -20 -20 -20 -20 -20 -20 -20 -20 -20 -20 -20 -20 -20 -20 -20 -20 -20 -20 -20 -20 -20 -20 -20 -20 -20 -20 -20 -20 -20 -20 -6 6 1 21 27 -12 4 21 1 26 21 14 21 26
-20 -20 -20 -20 -20 -20 -20 -20 -20 -20 -20 -20 -20 -20 -20 -20 -20 -20 -20 -20 -20 -20 -20 -20 -20 -20 -20 -20 -20 -20 -20 -20 -20 -20 -20 1 2 -1 8 25 24 -3 -18 -7 2 12 24 15 26
-20 -20 -20 -20 -20 -20 -20 -20 -20 -20 -20 -20 -20 -20 -20 -20 -20 -20 -20 -20 -20 -20 -20 -20 -20 -20 -20 -20 -20 -20 -20 -20 -20 -20 -19 2 7 21 15 26 -15 -1 -2 8 23 28 14 27 20
-20 -20 -20 -20 -11 -20 -20 -20 -20 -20 -20 -20 -20 -20 -20 -20 -20 -20 -20 -20 -20 -20 -20 -20 -20 -20 -20 -20 -20 -20 -20 -20 -20 -20 -20 2 2 3 11 3 12 7 16 6 27 24 25 15 9
-20 -20 -20 -20 -20 -20 -20 -20 -20 -20 -20 -20 -20 -20 -20 -20 -20 -20 -20 -20 -20 -20 -20 -20 -20 -20 -20 -20 -20 -20 -20 -20 -20 -20 -20 -1 24 11 -1 15 14 6 26 28 25 -18 1 1 -12
-20 -20 -20 -20 -20 -20 -20 -20 -20 -20 -20 -20 -20 -20 -20 -20 -20 -20 -20 -20 -20 -20 -20 -20 -20 -20 -20 -20 -20 -20 -20 -20 -20 -17 -2 23 27 24 14 9 6 28 28 24 14 5 4 13 -5
-20 -20 -20 -20 -20 -20 -20 -20 -20 -20 -20 -20 -20 -20 -20 -20 -20 -20 -20 -20 -20 -20 -20 -20 -20 -20 -20 -20 -20 -20 -20 -20 -2 9 26 10 26 6 6 8 12 4 23 16 4 4 24 4 12
-20 -20 -20 -20 -20 -20 -20 -20 -20 -20 -20 -20 -20 -20 -20 -20 -20 -20 -20 -20 -20 -20 -20 -20 -20 -20 -20 -20 -20 -20 -20 -17 -17 10 6 9 4 14 6 24 24 5 7 10 4 5 4 7 -13
-20 -20 -20 -20 -20 -20 -20 -20 -20 -20 -20 -20 -20 -20 -20 -20 -20 -20 -20 -20 -20 -20 -20 -20 -20 -20 -20 -20 -20 3 -4 1 5 4 -1 9 18 3 5 25 15 20 25 7 14 22 9 16 12
-20 -20 -20 -20 -20 -20 -20 -20 -20 -20 -20 -20 -20 -20 -20 -20 -20 -20 -20 -20 -20 -20 -20 -20 -20 -20 -20 -20 -20 -3 3 6 3 14 6 4 5 -20 20 15 25 18 1 8 -4 11 17 23 22
-20 -20 -20 -20 -20 -20 -20 -20 -20 -20 -20 -20 -20 -20 -20 -20 -20 -20 -20 -20 -20 -20 -20 -20 -20 -20 -20 -20 -20 -4 9 -20 3 22 -17 5 -3 5 12 11 20 16 0 -16 2 27 27 0 21
-20 -20 -20 -20 -20 -20 -20 -9 -20 -20 -20 -20 -20 -20 -20 -20 -20 -20 -20 -20 -20 -20 -20 -20 -20 -20 -20 -20 -20 -3 10 -20 25 22 22 6 10 -12 -20 -20 7 -20 -20 0 -12 0 24 10 4
Wind_Speed
12 12 6 6 7 5 12 6 4 7 7 2 3 6 5 6 8 7 5 11 9 18 19 23 22 22 20 19 18 17 17 16 15 13 12 11 10 9 8 7 6 6 5 5 5 5 5 5 5
11 9 6 3 8 9 10 6 10 3 3 6 9 11 8 9 5 4 6 14 12 18 18 22 23 22 21 19 18 17 16 15 14 13 12 11 10 10 10 9 9 9 9 9 8 8 7 7 6
12 8 7 6 9 10 3 10 6 2 2 3 5 5 1 2 1 3 5 18 14 18 18 19 24 22 20 19 17 16 15 15 15 14 13 12 11 11 11 11 11 12 12 11 12 11 11 10 9
9 7 6 10 12 9 9 8 3 5 6 3 3 6 4 4 1 1 7 17 14 17 18 17 23 21 21 20 18 17 16 15 15 15 13 13 12 11 11 13 13 14 14 14 14 14 13 13 11
8 6 10 12 14 10 8 10 6 8 3 3 2 4 3 5 3 2 5 13 13 15 17 17 21 22 21 20 19 18 16 15 15 14 14 13 13 13 13 13 14 15 14 16 17 16 14 12 10
9 6 10 13 15 8 10 11 10 11 6 2 5 4 1 4 4 1 5 12 12 13 15 14 19 21 20 20 19 18 17 16 15 14 13 13 13 14 14 12 12 13 13 14 15 15 14 11 10
13 9 14 15 12 11 13 8 12 15 11 6 5 7 3 2 9 3 5 10 13 12 14 14 15 19 17 17 17 16 16 15 14 14 14 13 13 12 11 11 10 10 11 13 15 15 14 12 11
9 10 19 13 13 12 1 10 4 7 6 2 3 6 6 13 7 3 6 8 13 14 15 15 14 17 17 16 15 15 15 14 13 13 13 12 13 12 12 8 12 11 9 11 12 14 15 14 11
12 12 14 19 14 11 5 9 1 3 11 10 7 11 12 11 7 8 7 10 12 14 15 15 15 14 16 16 15 14 16 14 12 13 14 11 11 11 13 10 4 8 10 11 12 13 13 14 14
15 15 23 21 13 15 8 9 7 9 14 17 15 17 6 11 11 13 13 12 13 17 16 15 14 15 14 12 13 13 13 12 11 11 11 9 11 8 7 8 6 10 12 12 12 13 13 12 10
19 24 22 23 21 19 18 19 18 16 18 21 21 19 17 17 16 17 16 14 14 14 16 17 15 15 15 12 9 8 8 7 7 10 8 8 7 6 7 6 6 7 8 7 9 9 10 12 6
29 24 22 26 24 19 19 23 23 22 20 23 22 21 23 21 18 18 17 17 15 14 15 18 18 15 15 10 10 9 8 7 6 7 9 8 6 7 7 6 6 6 7 6 7 6 5 8 10
31 25 25 22 24 23 23 26 29 27 21 23 21 21 19 19 21 21 20 18 17 16 14 18 18 17 14 13 10 9 8 7 7 7 8 8 7 6 7 6 7 7 8 8 7 7 7 8 9
25 28 29 27 26 25 25 26 27 25 21 25 21 22 21 19 22 20 19 18 16 14 13 16 18 18 17 14 12 9 8 8 7 7 7 8 8 7 8 7 8 8 8 8 7 6 7 7 8
25 27 27 22 25 27 25 27 28 24 21 25 22 18 20 20 21 19 17 17 16 13 12 17 18 19 18 17 14 10 8 7 7 6 7 9 8 9 9 8 8 8 6 10 8 8 8 8 8
20 25 26 25 22 20 16 29 23 17 19 19 16 17 19 21 21 20 17 17 16 13 12 15 16 20 19 15 13 10 8 8 7 6 6 9 10 11 9 8 7 7 6 7 9 8 8 8 8
25 26 32 26 24 23 25 34 24 23 17 15 16 19 20 21 22 20 16 14 13 12 12 15 17 19 18 13 12 10 9 8 6 5 6 8 10 11 9 7 6 5 6 7 8 8 7 7 4
26 26 26 28 20 17 28 33 22 21 20 19 19 20 20 20 22 19 14 12 11 7 11 13 14 16 15 12 9 8 7 7 6 6 7 8 8 10 9 6 6 4 6 7 8 7 7 6 6
26 26 31 25 24 24 26 30 27 22 15 21 22 20 20 22 22 15 7 7 4 7 11 14 15 15 13 11 10 8 8 7 6 5 7 8 8 9 7 5 7 6 5 6 9 5 8 5 5
29 28 30 24 18 22 23 29 27 22 23 21 25 21 23 20 19 12 4 4 7 9 11 14 16 16 12 9 7 5 5 5 4 3 4 7 8 7 7 7 6 6 7 9 9 9 6 5 7
31 31 24 25 18 18 22 28 28 26 28 26 22 19 20 20 18 12 6 6 9 12 14 15 17 16 12 10 7 5 4 4 6 6 5 5 6 8 5 7 8 9 10 6 7 9 9 7 7
33 24 24 24 20 23 21 26 27 25 27 22 23 22 23 17 15 7 8 9 10 12 15 17 17 15 11 10 7 5 4 4 1 3 2 4 5 5 6 8 8 9 5 8 8 7 7 7 7
28 17 22 23 22 23 26 22 19 19 23 24 25 21 17 13 8 9 10 11 13 14 16 16 16 13 12 9 7 7 4 3 3 3 4 5 4 3 6 7 9 7 6 8 7 6 7 5 5
21 18 21 18 16 22 21 22 20 23 26 24 21 17 14 7 7 10 12 14 15 16 16 15 15 12 11 9 7 4 4 3 3 4 5 3 2 4 6 6 6 7 6 5 5 6 7 5 5
23 23 11 14 15 15 16 17 23 20 19 22 16 11 10 9 11 14 16 17 18 18 17 14 14 13 11 10 7 6 4 3 4 5 2 1 3 5 6 6 5 5 5 5 5 7 6 5 4
29 27 14 18 15 13 19 12 16 11 18 22 19 10 11 10 12 15 17 18 18 18 16 15 14 12 11 9 7 5 5 3 3 2 3 1 3 4 6 5 5 5 5 6 6 5 5 6 4
29 30 23 8 4 9 10 14 13 18 15 13 12 16 12 10 13 16 18 17 18 16 15 14 13 11 11 9 7 5 5 2 2 1 2 3 5 6 5 5 5 5 5 5 5 4 6 5 4
29 23 24 14 16 12 8 12 7 3 6 10 12 13 11 13 16 17 17 17 15 15 14 13 11 12 11 9 7 6 5 3 3 4 3 4 5 5 6 5 5 5 5 4 3 5 5 4 6
20 24 21 16 12 13 7 6 7 13 6 11 12 14 15 16 17 18 17 17 16 15 15 12 11 12 10 8 7 6 4 4 4 3 4 5 7 7 6 5 4 4 4 2 1 2 4 4 5
24 21 25 14 20 10 7 2 5 4 3 8 7 11 16 17 18 18 18 17 17 15 14 13 12 11 10 8 7 6 5 4 3 4 6 6 7 7 7 6 5 4 2 3 4 5 4 5 5
Wind_Direction
160 175 196 215 227 238 243 191 1 166 185 135 262 238 259 315 309 342 120 168 166 160 164 175 178 179 180 182 181 181 182 184 183 186 189 192 193 198 208 221 235 244 248 248 252 251 247 248 258
160 171 211 225 249 221 191 183 195 175 358 283 248 243 243 262 272 282 190 173 169 160 172 183 182 183 182 184 185 185 187 186 187 193 197 205 210 216 223 229 239 253 260 264 257 249 250 248 247
175 220 248 232 238 250 241 180 130 171 257 244 219 264 259 246 190 311 76 160 165 171 178 186 179 186 185 185 187 188 190 190 194 200 207 216 225 233 237 241 241 248 259 261 265 259 253 246 231
186 198 227 249 240 237 267 168 144 241 167 234 299 239 186 353 357 342 136 168 170 180 182 178 179 187 187 187 189 191 194 196 202 207 214 224 233 240 244 249 249 250 254 257 257 262 251 258 254
221 247 249 237 250 254 232 267 284 258 219 243 236 256 270 94 358 329 178 185 185 186 187 182 180 189 191 189 190 193 195 200 205 210 220 229 236 243 248 253 258 261 266 264 260 259 254 258 262
221 270 238 240 243 228 250 251 252 244 232 177 213 280 302 82 30 84 193 202 208 190 195 194 181 193 193 192 191 193 195 200 205 211 221 231 238 247 248 252 260 270 277 279 277 274 266 255 261
241 228 250 261 274 264 257 257 241 239 211 197 350 267 299 84 17 339 229 213 211 205 200 200 189 196 198 195 194 195 199 204 206 214 223 231 242 252 252 254 262 270 278 282 280 277 268 263 256
244 255 260 246 257 270 246 235 277 241 233 87 277 261 276 18 354 309 265 238 214 211 204 207 205 192 200 198 197 196 202 206 212 218 226 233 243 249 248 248 235 244 272 277 279 277 269 263 259
234 239 247 251 249 245 175 237 148 332 273 275 259 274 299 316 305 292 287 263 234 221 214 208 202 204 201 201 191 194 201 209 213 223 228 236 245 243 227 229 298 284 277 273 272 268 264 266 260
217 230 244 250 265 270 236 244 282 278 273 276 271 256 257 264 278 286 284 272 248 237 221 213 213 205 204 202 196 202 204 211 215 226 237 226 246 255 289 304 286 277 279 279 270 265 266 260 253
225 242 249 247 256 260 283 272 273 263 270 272 283 307 296 288 280 277 270 271 268 248 220 213 202 203 206 201 188 198 204 206 219 232 235 242 259 243 242 258 243 250 222 265 243 229 227 239 227
247 244 244 265 264 260 259 274 279 267 271 276 286 288 290 289 284 279 277 270 263 257 240 210 204 204 200 198 196 200 201 204 214 217 223 236 232 234 253 269 271 262 258 270 258 260 259 266 261
243 251 252 249 264 267 270 269 270 276 282 280 285 283 277 277 277 278 275 269 269 263 237 211 198 200 195 197 193 204 204 199 220 221 215 238 248 246 256 256 261 258 259 252 247 256 258 258 243
246 246 249 257 256 260 259 265 270 270 277 276 274 281 281 285 283 283 277 268 264 258 239 210 198 199 192 187 189 188 197 202 218 220 222 216 244 242 255 250 245 250 257 252 251 238 266 254 256
259 254 256 246 252 252 261 264 261 266 263 267 275 279 278 285 293 287 277 270 269 265 232 207 197 196 192 186 176 188 186 217 215 215 211 227 232 237 253 258 258 259 262 255 245 246 237 252 239
250 243 249 230 230 243 238 259 260 269 266 270 270 280 286 287 288 282 276 266 268 260 224 192 196 192 188 177 174 180 183 207 216 210 225 226 235 243 248 250 245 246 236 240 240 233 234 247 245
229 237 235 244 241 236 233 256 251 255 254 260 271 279 284 292 292 280 282 273 265 249 212 193 200 188 182 169 167 170 175 212 214 213 234 236 237 238 238 239 239 235 240 227 232 239 248 234 243
228 230 243 259 239 222 240 249 254 258 256 274 276 276 287 293 288 285 287 294 272 219 188 195 188 181 172 159 156 171 174 205 217 221 239 243 238 242 235 238 241 220 228 232 234 229 241 246 231
246 243 246 244 243 242 235 253 260 257 268 269 276 285 285 287 291 287 307 292 210 181 179 184 178 163 165 161 169 175 196 203 216 230 239 252 250 245 236 214 209 218 240 233 235 237 239 227 219
236 242 247 255 246 242 252 265 275 269 261 271 275 277 281 284 289 287 283 229 173 165 165 164 162 162 165 164 175 189 199 200 237 252 251 253 250 231 224 225 213 208 217 224 225 224 225 221 207
226 233 239 250 252 248 259 266 266 265 258 254 266 264 268 271 278 274 214 188 164 159 156 157 157 160 162 151 151 160 151 213 214 199 216 202 227 225 211 206 207 204 229 216 223 222 217 213 200
231 221 242 251 252 252 245 268 265 269 267 262 264 268 266 267 261 241 184 169 164 152 155 154 154 154 153 166 165 175 226 250 74 248 205 232 227 224 216 206 210 213 191 225 218 218 220 204 193
233 223 230 241 250 266 255 261 273 268 266 265 264 254 252 250 255 188 176 159 151 149 148 146 147 153 147 159 166 179 229 166 193 209 225 243 225 211 206 197 200 204 214 215 217 185 216 196 211
219 217 224 234 242 248 250 254 266 263 265 266 259 254 224 187 185 158 144 147 143 143 142 144 145 144 152 159 158 177 167 205 235 228 258 302 179 199 202 192 198 210 206 183 192 186 204 201 209
187 192 197 217 221 253 240 242 251 261 255 252 255 243 146 166 157 149 150 147 148 146 145 145 148 149 157 162 165 162 163 181 220 251 278 248 208 182 169 181 183 194 177 178 171 191 202 213 225
192 190 210 215 228 242 204 239 243 252 255 247 248 229 148 166 153 154 150 148 148 149 150 149 152 155 163 165 162 161 152 193 244 208 335 276 177 196 141 180 178 190 178 168 180 192 198 211 210
190 214 214 247 273 262 171 238 262 257 248 246 231 206 177 157 155 152 146 152 150 152 152 150 155 157 164 165 162 158 165 218 34 117 122 173 172 132 164 161 155 130 152 153 167 193 199 198 145
197 194 202 209 225 217 226 252 246 303 208 213 186 186 166 159 157 151 152 154 151 151 149 150 158 158 162 161 166 159 156 155 144 133 148 141 132 161 159 166 140 132 145 151 167 174 179 172 124
187 198 210 215 236 203 238 225 198 250 213 197 199 176 159 164 157 155 155 155 152 151 150 151 163 158 162 163 159 155 145 125 167 146 153 152 159 164 166 164 129 113 117 134 152 166 136 128 166
199 200 198 199 193 240 242 190 299 231 124 207 113 148 154 155 154 157 156 157 152 156 151 159 166 164 162 160 161 148 141 140 155 148 135 166 163 168 164 163 138 118 158 131 138 157 144 138 119